Weather History for Kiana, AK

Change the Weather History Date:

Sunday, November 24, 2013

  Actual Average (PASK) Record (PASK)
Temperature  
Mean Temperature 0 °F -  
Max Temperature -11 °F 7 °F 33 °F (2002)
Min Temperature -9 °F -1 °F -23 °F (2008)
Degree Days  
Heating Degree Days 65    
Moisture  
Dew Point -4 °F    
Average Humidity 84    
Maximum Humidity 88    
Minimum Humidity 78    
Precipitation  
Precipitation 0.00 in - - ()
Sea Level Pressure  
Sea Level Pressure 30.13 in    
Wind  
Wind Speed 3 mph (North)    
Max Wind Speed 9 mph    
Max Gust Speed -    
Visibility 9 miles    
Events Snow    
Averages and records for this station are not official NWS values.
T = Trace of Precipitation, MM = Missing Value Source: NWS Daily Summary

Daily Weather History Graph

Daily Weather History Graph

Search for Another Location

Airport:

Trip Planner

Search our weather history database for the weather conditions in past years. The results will help you decide how hot, cold, wet, or windy it might be!

Date:

Astronomy

Nov. 24, 2013 Rise Set
Actual Time 11:21 AM AKST 3:35 PM AKST
Civil Twilight 9:56 AM AKST 4:59 PM AKST
Nautical Twilight 8:43 AM AKST 6:13 PM AKST
Astronomical Twilight 7:38 AM AKST 7:17 PM AKST
Moon No Moon Rise 2:28 PM AKST (11/24)
Length of Visible Light 7h 02m
Length of Day
4h 14m
Waning Gibbous, 59% of the Moon is Illuminated
Nov 24
Waning Gibbous
Nov 25
Last Quarter
Dec 2
New
Dec 9
First Quarter
Dec 17
Full

Hourly Weather History & Observations

Time (AKST) Temp. Windchill Dew Point Humidity Pressure Visibility Wind Dir Wind Speed Gust Speed Precip Events Conditions
12:01 AM 9.0 °F - 6.1 °F 88% 30.01 in 9.0 mi Calm Calm - 0.00 in Snow Light Snow
12:50 AM 8.6 °F 0.1 °F 5.0 °F 85% 29.90 in 9.0 mi East 4.6 mph - 0.00 in Snow Light Snow
1:01 AM 8.1 °F 1.4 °F 5.0 °F 87% 30.04 in 9.0 mi ENE 3.5 mph - 0.00 in   Mostly Cloudy
1:09 AM 8.6 °F -2.6 °F 5.0 °F 85% 29.90 in 10.0 mi NNE 6.9 mph - N/A   Mostly Cloudy
2:01 AM 8.1 °F -0.5 °F 3.9 °F 83% 30.05 in 9.0 mi North 4.6 mph - 0.00 in Snow Light Snow
3:01 AM 8.1 °F - 5.0 °F 87% 30.07 in 9.0 mi Calm Calm - 0.00 in Snow Light Snow
4:01 AM 9.0 °F -2.2 °F 6.1 °F 88% 30.09 in 9.0 mi NW 6.9 mph - 0.00 in Snow Light Snow
5:01 AM 9.0 °F 0.6 °F 6.1 °F 88% 30.11 in 10.0 mi East 4.6 mph - 0.00 in Snow Light Snow
6:01 AM 8.1 °F 1.4 °F 5.0 °F 87% 30.13 in 10.0 mi ENE 3.5 mph - 0.00 in Snow Light Snow
6:41 AM 8.6 °F 0.1 °F 5.0 °F 85% 30.00 in 9.0 mi NNW 4.6 mph - 0.00 in Snow Light Snow
6:50 AM 6.8 °F - 3.2 °F 85% 30.00 in 10.0 mi Calm Calm - 0.00 in   Partly Cloudy
7:01 AM 7.0 °F - 3.9 °F 87% 30.14 in 10.0 mi Calm Calm - 0.00 in   Partly Cloudy
8:01 AM 5.0 °F - 1.0 °F 84% 30.15 in 10.0 mi Calm Calm - N/A   Clear
9:01 AM 1.0 °F -8.7 °F -2.0 °F 87% 30.18 in 9.0 mi NNE 4.6 mph - 0.00 in Snow Light Snow
10:01 AM -0.0 °F -7.9 °F -4.0 °F 83% 30.20 in 10.0 mi NNW 3.5 mph - 0.00 in   Clear
10:44 AM -2.2 °F - -7.6 °F 78% 30.07 in 2.0 mi Calm Calm - 0.00 in   Clear
10:54 AM -2.2 °F -10.4 °F -7.6 °F 78% 30.08 in 6.0 mi North 3.5 mph - 0.00 in   Clear
11:01 AM -2.9 °F -13.3 °F -7.1 °F 82% 30.22 in 8.0 mi NW 4.6 mph - 0.00 in   Clear
11:19 AM -4.0 °F -14.6 °F -7.6 °F 85% 30.09 in 1.8 mi NNW 4.6 mph - N/A   Clear
11:27 AM -4.0 °F -12.4 °F -7.6 °F 85% 30.09 in 8.0 mi North 3.5 mph - N/A   Clear
12:01 PM -2.9 °F -11.2 °F -7.1 °F 82% 30.24 in 10.0 mi NE 3.5 mph - N/A   Clear
12:26 PM -2.2 °F -10.4 °F -5.8 °F 85% 30.11 in 2.0 mi NW 3.5 mph - N/A   Clear
12:36 PM -2.2 °F -12.5 °F -5.8 °F 85% 30.11 in 10.0 mi NNW 4.6 mph - N/A   Clear
1:01 PM -0.9 °F -8.9 °F -5.1 °F 83% 30.26 in 10.0 mi NNW 3.5 mph - N/A   Clear
2:01 PM -2.0 °F -12.2 °F -6.0 °F 83% 30.27 in 10.0 mi WNW 4.6 mph - N/A   Clear
3:01 PM -4.0 °F -12.4 °F -8.0 °F 83% 30.27 in 10.0 mi NNW 3.5 mph - N/A   Clear
4:01 PM -9.0 °F - -14.1 °F 79% 30.29 in 5.0 mi Calm Calm - 0.00 in Snow Light Snow
5:01 PM -5.1 °F -19.1 °F -8.0 °F 87% 30.15 in 10.0 mi NNW 6.9 mph - N/A   Unknown
6:01 PM -8.0 °F -16.9 °F -11.9 °F 83% 30.16 in 10.0 mi East 3.5 mph - N/A   Clear
7:01 PM -8.0 °F -19.2 °F -11.9 °F 83% 30.17 in 10.0 mi NNE 4.6 mph - N/A   Clear
8:01 PM -9.9 °F -19.2 °F -14.1 °F 82% 30.18 in 10.0 mi NE 3.5 mph - N/A   Clear
9:01 PM -9.9 °F -24.9 °F -15.0 °F 78% 30.19 in 10.0 mi NNW 6.9 mph - N/A   Clear
10:01 PM -7.1 °F - -11.0 °F 83% 30.20 in 10.0 mi Calm Calm - N/A   Clear
11:01 PM -9.9 °F -27.5 °F -15.0 °F 78% 30.21 in 10.0 mi NNW 9.2 mph - N/A   Clear